,,PA_Meas_PMT16A,,PR_Meas_QMR101_102,,RH_Meas_QMH101,,SR_Meas_QMS101,,TA_Meas_QMH101,,GenWind,,GenWind,
time,status,PA,status,PR,status,RH,status,SR,status,TA,status,DirAvg,status,SpdAvg,
2011-10-01, 00:00:04,VALID,918.295,VALID,0,VALID,95.7425,VALID,0,VALID,20.1303,VALID,25,VALID,0,
2011-10-01, 00:01:04,VALID,918.297,VALID,0,VALID,95.8645,VALID,0,VALID,20.2098,VALID,25,VALID,0,
2011-10-01, 00:02:04,VALID,918.289,VALID,0,VALID,95.6739,VALID,0.107441,VALID,20.1303,VALID,25,VALID,0,
2011-10-01, 00:03:04,VALID,918.29,VALID,0,VALID,95.4909,VALID,0,VALID,20.0733,VALID,25,VALID,0,
2011-10-01, 00:04:04,VALID,918.264,VALID,0,VALID,95.4528,VALID,0,VALID,20.0133,VALID,25,VALID,0,
2011-10-01, 00:05:04,VALID,918.245,VALID,0,VALID,95.4528,VALID,0,VALID,19.9938,VALID,25,VALID,0,
2011-10-01, 00:06:04,VALID,918.238,VALID,0,VALID,95.6205,VALID,0,VALID,19.9938,VALID,25,VALID,0,
2011-10-01, 00:07:04,VALID,918.26,VALID,0,VALID,95.651,VALID,0,VALID,20.0343,VALID,25,VALID,0.364844,
2011-10-01, 00:08:04,VALID,918.254,VALID,0,VALID,95.6357,VALID,0,VALID,19.9743,VALID,25,VALID,0.53125,
2011-10-01, 00:09:04,VALID,918.223,VALID,0,VALID,95.6586,VALID,0.107441,VALID,19.9743,VALID,25,VALID,0.361719,
2011-10-01, 00:10:04,VALID,918.201,VALID,0,VALID,95.6739,VALID,0,VALID,19.9743,VALID,25,VALID,0.398438,
2011-10-01, 00:11:04,VALID,918.195,VALID,0,VALID,95.7349,VALID,0,VALID,19.9743,VALID,25,VALID,0.211328,
2011-10-01, 00:12:04,VALID,918.152,VALID,0,VALID,95.7044,VALID,0,VALID,19.9743,VALID,25,VALID,0.0136719,
2011-10-01, 00:13:04,VALID,918.147,VALID,0,VALID,95.6739,VALID,0,VALID,19.9743,VALID,25,VALID,0.157422,
2011-10-01, 00:14:04,VALID,918.122,VALID,0,VALID,95.6586,VALID,0,VALID,19.9743,VALID,25,VALID,0,
2011-10-01, 00:15:04,VALID,918.123,VALID,0,VALID,95.7501,VALID,0,VALID,20.0133,VALID,25,VALID,0.0152344,
2011-10-01, 00:16:04,VALID,918.092,VALID,0,VALID,95.6205,VALID,0,VALID,19.9743,VALID,25,VALID,0.341016,
2011-10-01, 00:17:04,VALID,918.077,VALID,0,VALID,95.5519,VALID,0,VALID,19.9353,VALID,25,VALID,0.36875,
2011-10-01, 00:18:04,VALID,918.065,VALID,0,VALID,95.4528,VALID,0,VALID,19.9173,VALID,25,VALID,0.515625,
2011-10-01, 00:19:04,VALID,918.066,VALID,0,VALID,95.4147,VALID,0,VALID,19.8783,VALID,25,VALID,0.564453,
2011-10-01, 00:20:04,VALID,918.065,VALID,0,VALID,95.4528,VALID,0,VALID,19.8588,VALID,25,VALID,0.511719,
2011-10-01, 00:21:04,VALID,918.082,VALID,0,VALID,95.5367,VALID,0,VALID,19.8573,VALID,25,VALID,0.523047,
2011-10-01, 00:22:04,VALID,918.079,VALID,0,VALID,95.5595,VALID,0,VALID,19.8588,VALID,25,VALID,0.545703,
2011-10-01, 00:23:04,VALID,918.067,VALID,0,VALID,95.6586,VALID,0,VALID,19.8783,VALID,25,VALID,0.164063,
2011-10-01, 00:24:04,VALID,918.037,VALID,0,VALID,95.6815,VALID,0,VALID,19.8573,VALID,25,VALID,0,
2011-10-01, 00:25:04,VALID,918.017,VALID,0,VALID,95.7654,VALID,0,VALID,19.8768,VALID,25,VALID,0,
2011-10-01, 00:26:04,VALID,917.992,VALID,0,VALID,95.7044,VALID,0,VALID,19.8768,VALID,25,VALID,0,
2011-10-01, 00:27:04,VALID,917.988,VALID,0,VALID,95.6967,VALID,0,VALID,19.8573,VALID,25,VALID,0,
2011-10-01, 00:28:04,VALID,917.944,VALID,0,VALID,95.7501,VALID,0,VALID,19.8768,VALID,25,VALID,0,
2011-10-01, 00:29:04,VALID,917.912,VALID,0,VALID,95.834,VALID,0,VALID,19.8963,VALID,25,VALID,0,
2011-10-01, 00:30:04,VALID,917.894,VALID,0,VALID,95.8111,VALID,0,VALID,19.9173,VALID,25,VALID,0.528125,
2011-10-01, 00:31:04,VALID,917.858,VALID,0,VALID,95.6891,VALID,0,VALID,19.8768,VALID,25,VALID,0.650391,
2011-10-01, 00:32:04,VALID,917.855,VALID,0,VALID,95.8416,VALID,0,VALID,19.8963,VALID,25,VALID,0.642187,
2011-10-01, 00:33:04,VALID,917.777,VALID,0,VALID,95.8416,VALID,0,VALID,19.9368,VALID,25,VALID,0.669141,
2011-10-01, 00:34:04,VALID,917.749,VALID,0,VALID,95.8187,VALID,0.107441,VALID,19.8963,VALID,25,VALID,0.791406,
2011-10-01, 00:35:04,VALID,917.729,VALID,0,VALID,95.8035,VALID,0,VALID,19.8558,VALID,25,VALID,0.792969,
2011-10-01, 00:36:04,VALID,917.735,VALID,0,VALID,95.7958,VALID,0,VALID,19.8768,VALID,25,VALID,0.769922,
2011-10-01, 00:37:04,VALID,917.715,VALID,0,VALID,95.7882,VALID,0.107441,VALID,19.8978,VALID,25,VALID,1.03555,
2011-10-01, 00:38:04,VALID,917.707,VALID,0,VALID,95.8645,VALID,0.107441,VALID,19.8768,VALID,25,VALID,0.676172,
2011-10-01, 00:39:04,VALID,917.664,VALID,0,VALID,95.8492,VALID,0,VALID,19.8573,VALID,25,VALID,0.642187,
2011-10-01, 00:40:04,VALID,917.645,VALID,0,VALID,95.895,VALID,0,VALID,19.8378,VALID,25,VALID,0.450781,
2011-10-01, 00:41:04,VALID,917.61,VALID,0,VALID,95.9407,VALID,0,VALID,19.8783,VALID,25,VALID,0.426562,
2011-10-01, 00:42:04,VALID,917.622,VALID,0,VALID,95.9941,VALID,0,VALID,19.8978,VALID,25,VALID,0.540625,
2011-10-01, 00:43:04,VALID,917.619,VALID,0,VALID,96.0398,VALID,0,VALID,19.8963,VALID,25,VALID,0.340625,
2011-10-01, 00:44:04,VALID,917.602,VALID,0,VALID,95.9636,VALID,0,VALID,19.8978,VALID,25,VALID,0.00585938,
2011-10-01, 00:45:04,VALID,917.622,VALID,0,VALID,95.9483,VALID,0,VALID,19.8783,VALID,25,VALID,0.0015625,
2011-10-01, 00:46:04,VALID,917.569,VALID,0,VALID,95.9788,VALID,0.107441,VALID,19.8378,VALID,25,VALID,0.304688,
2011-10-01, 00:47:04,VALID,917.591,VALID,0,VALID,96.055,VALID,0,VALID,19.8573,VALID,25,VALID,0.565625,
2011-10-01, 00:48:04,VALID,917.595,VALID,0,VALID,96.055,VALID,0,VALID,19.8378,VALID,25,VALID,0.520703,
2011-10-01, 00:49:04,VALID,917.586,VALID,0,VALID,96.1313,VALID,0,VALID,19.8573,VALID,25,VALID,0.946484,
2011-10-01, 00:50:04,VALID,917.587,VALID,0,VALID,96.0855,VALID,0,VALID,19.8573,VALID,25,VALID,0.831641,
2011-10-01, 00:51:04,VALID,917.577,VALID,0,VALID,96.1389,VALID,0,VALID,19.8783,VALID,17,VALID,0.96875,
2011-10-01, 00:52:04,VALID,917.558,VALID,0,VALID,96.1923,VALID,0,VALID,19.8978,VALID,32,VALID,1.34453,
2011-10-01, 00:53:04,VALID,917.542,VALID,0,VALID,96.1999,VALID,0,VALID,19.8768,VALID,33,VALID,1.17109,
2011-10-01, 00:54:04,VALID,917.557,VALID,0,VALID,96.1999,VALID,0,VALID,19.9173,VALID,33,VALID,1.00117,
2011-10-01, 00:55:04,VALID,917.534,VALID,0,VALID,96.2609,VALID,0,VALID,19.9368,VALID,33,VALID,0.719141,
2011-10-01, 00:56:04,VALID,917.494,VALID,0,VALID,96.1923,VALID,0,VALID,19.9563,VALID,33,VALID,0.689453,
2011-10-01, 00:57:04,VALID,917.502,VALID,0,VALID,96.1999,VALID,0,VALID,19.8963,VALID,33,VALID,0.735937,
2011-10-01, 00:58:04,VALID,917.489,VALID,0,VALID,96.2685,VALID,0,VALID,19.9368,VALID,33,VALID,0.538672,
2011-10-01, 00:59:04,VALID,917.475,VALID,0,VALID,96.2228,VALID,0,VALID,19.9158,VALID,33,VALID,0.483203,
2011-10-01, 01:00:04,VALID,917.433,VALID,0,VALID,96.2685,VALID,0,VALID,19.9353,VALID,33,VALID,0.746875,
2011-10-01, 01:01:04,VALID,917.42,VALID,0,VALID,96.2228,VALID,0,VALID,19.9158,VALID,33,VALID,0.919922,
2011-10-01, 01:02:04,VALID,917.441,VALID,0,VALID,96.1389,VALID,0,VALID,19.9173,VALID,33,VALID,0.762891,
2011-10-01, 01:03:04,VALID,917.437,VALID,0,VALID,96.0245,VALID,0.107441,VALID,19.8378,VALID,33,VALID,0.697656,
2011-10-01, 01:04:04,VALID,917.439,VALID,0,VALID,96.0627,VALID,0,VALID,19.8378,VALID,33,VALID,0.937109,
2011-10-01, 01:05:04,VALID,917.406,VALID,0,VALID,96.0398,VALID,0.107441,VALID,19.7988,VALID,32,VALID,0.809766,
2011-10-01, 01:06:04,VALID,917.383,VALID,0,VALID,96.0932,VALID,0,VALID,19.7793,VALID,32,VALID,0.814844,
2011-10-01, 01:07:04,VALID,917.36,VALID,0,VALID,96.1313,VALID,0,VALID,19.7403,VALID,32,VALID,0.588281,
2011-10-01, 01:08:04,VALID,917.346,VALID,0,VALID,96.1541,VALID,0,VALID,19.7403,VALID,8,VALID,1.05078,
2011-10-01, 01:09:04,VALID,917.221,VALID,0,VALID,96.238,VALID,0,VALID,19.7433,VALID,30,VALID,1.30195,
2011-10-01, 01:10:04,VALID,917.174,VALID,0,VALID,96.299,VALID,0,VALID,19.7013,VALID,5,VALID,1.68984,
2011-10-01, 01:11:04,VALID,917.153,VALID,0,VALID,96.3142,VALID,0,VALID,19.6818,VALID,340,VALID,1.08086,
2011-10-01, 01:12:04,VALID,917.134,VALID,0,VALID,96.3829,VALID,0,VALID,19.6623,VALID,16,VALID,1.00937,
2011-10-01, 01:13:04,VALID,917.144,VALID,0,VALID,96.4438,VALID,0,VALID,19.6833,VALID,15,VALID,0.995313,
2011-10-01, 01:14:04,VALID,917.123,VALID,0,VALID,96.5201,VALID,0,VALID,19.6623,VALID,16,VALID,0.457812,
2011-10-01, 01:15:04,VALID,917.151,VALID,0,VALID,96.5811,VALID,0,VALID,19.6818,VALID,15,VALID,0.734766,
2011-10-01, 01:16:04,VALID,917.162,VALID,0,VALID,96.6192,VALID,0,VALID,19.7013,VALID,16,VALID,0.00585938,
2011-10-01, 01:17:04,VALID,917.189,VALID,0,VALID,96.6344,VALID,0,VALID,19.7208,VALID,16,VALID,0.331641,
2011-10-01, 01:18:04,VALID,917.186,VALID,0,VALID,96.6649,VALID,0,VALID,19.7208,VALID,15,VALID,0,
2011-10-01, 01:19:04,VALID,917.184,VALID,0,VALID,96.6878,VALID,0,VALID,19.7613,VALID,15,VALID,0.0480469,
2011-10-01, 01:20:04,VALID,917.168,VALID,0,VALID,96.642,VALID,0,VALID,19.7808,VALID,15,VALID,0.147656,
2011-10-01, 01:21:04,VALID,917.156,VALID,0,VALID,96.6573,VALID,0.107441,VALID,19.7598,VALID,15,VALID,0.323828,
2011-10-01, 01:22:04,VALID,917.13,VALID,0,VALID,96.6497,VALID,0,VALID,19.7598,VALID,15,VALID,0.297266,
2011-10-01, 01:23:04,VALID,917.101,VALID,0,VALID,96.6497,VALID,0,VALID,19.7808,VALID,15,VALID,0.234375,
2011-10-01, 01:24:04,VALID,917.046,VALID,0,VALID,96.6725,VALID,0,VALID,19.7808,VALID,15,VALID,0,
2011-10-01, 01:25:04,VALID,917.055,VALID,0,VALID,96.7183,VALID,0,VALID,19.7988,VALID,15,VALID,0,
2011-10-01, 01:26:04,VALID,917.06,VALID,0,VALID,96.642,VALID,0.107441,VALID,19.8198,VALID,15,VALID,0.618359,
2011-10-01, 01:27:04,VALID,917.036,VALID,0,VALID,96.6497,VALID,0,VALID,19.7988,VALID,16,VALID,0.447656,
2011-10-01, 01:28:04,VALID,917.066,VALID,0,VALID,96.642,VALID,0,VALID,19.8393,VALID,15,VALID,0.548828,
2011-10-01, 01:29:04,VALID,917.053,VALID,0,VALID,96.6573,VALID,0.107441,VALID,19.8378,VALID,15,VALID,0.477734,
2011-10-01, 01:30:04,VALID,917.088,VALID,0,VALID,96.6573,VALID,0,VALID,19.8573,VALID,16,VALID,0,
2011-10-01, 01:31:04,VALID,917.081,VALID,0,VALID,96.6649,VALID,0,VALID,19.9173,VALID,16,VALID,0.610937,
2011-10-01, 01:32:04,VALID,917.067,VALID,0,VALID,96.6115,VALID,0,VALID,19.8978,VALID,16,VALID,0.798828,
2011-10-01, 01:33:04,VALID,917.055,VALID,0,VALID,96.6268,VALID,0,VALID,19.8978,VALID,15,VALID,1.06445,
2011-10-01, 01:34:04,VALID,917.009,VALID,0,VALID,96.6497,VALID,0,VALID,19.8963,VALID,16,VALID,0.594141,
2011-10-01, 01:35:04,VALID,917.032,VALID,0,VALID,96.6268,VALID,0,VALID,19.8963,VALID,15,VALID,0.498047,
2011-10-01, 01:36:04,VALID,916.993,VALID,0,VALID,96.4743,VALID,0,VALID,19.8978,VALID,15,VALID,0.530469,
2011-10-01, 01:37:04,VALID,916.991,VALID,0,VALID,96.5048,VALID,0,VALID,19.8768,VALID,1,VALID,0.671484,
2011-10-01, 01:38:04,VALID,917.005,VALID,0,VALID,96.4057,VALID,0,VALID,19.8573,VALID,1,VALID,0.317969,
2011-10-01, 01:39:04,VALID,916.999,VALID,0,VALID,96.4133,VALID,0.107441,VALID,19.8378,VALID,1,VALID,0,
2011-10-01, 01:40:04,VALID,916.997,VALID,0,VALID,96.4438,VALID,0.107441,VALID,19.8378,VALID,1,VALID,0,
2011-10-01, 01:41:04,VALID,917.002,VALID,0,VALID,96.4896,VALID,0.107441,VALID,19.8768,VALID,1,VALID,0,
2011-10-01, 01:42:04,VALID,916.993,VALID,0,VALID,96.4438,VALID,0.107441,VALID,19.8963,VALID,1,VALID,0,
2011-10-01, 01:43:04,VALID,916.999,VALID,0,VALID,96.2914,VALID,0.107441,VALID,19.8768,VALID,1,VALID,0.246484,
2011-10-01, 01:44:04,VALID,917.012,VALID,0,VALID,96.2456,VALID,0,VALID,19.8783,VALID,1,VALID,0.271094,
2011-10-01, 01:45:04,VALID,917.005,VALID,0,VALID,96.2761,VALID,0,VALID,19.8783,VALID,1,VALID,0.486719,
2011-10-01, 01:46:04,VALID,916.978,VALID,0,VALID,96.1618,VALID,0,VALID,19.8588,VALID,1,VALID,0.232422,
2011-10-01, 01:47:04,VALID,916.991,VALID,0,VALID,96.1465,VALID,0,VALID,19.8588,VALID,1,VALID,0.4875,
2011-10-01, 01:48:04,VALID,916.944,VALID,0,VALID,96.177,VALID,0,VALID,19.8393,VALID,1,VALID,0.378516,
2011-10-01, 01:49:04,VALID,916.963,VALID,0,VALID,96.2456,VALID,0,VALID,19.8783,VALID,1,VALID,0.654688,
2011-10-01, 01:50:04,VALID,916.952,VALID,0,VALID,96.2533,VALID,0,VALID,19.8783,VALID,1,VALID,0.696484,
2011-10-01, 01:51:04,VALID,916.971,VALID,0,VALID,96.2837,VALID,0,VALID,19.8978,VALID,1,VALID,0.637109,
2011-10-01, 01:52:04,VALID,916.953,VALID,0,VALID,96.3142,VALID,0,VALID,19.9383,VALID,1,VALID,0.8625,
2011-10-01, 01:53:04,VALID,916.932,VALID,0,VALID,96.2837,VALID,0,VALID,19.9383,VALID,14,VALID,1.31914,
2011-10-01, 01:54:04,VALID,916.925,VALID,0,VALID,96.2456,VALID,0,VALID,19.8978,VALID,26,VALID,1.43438,
2011-10-01, 01:55:04,VALID,916.916,VALID,0,VALID,96.1313,VALID,0,VALID,19.8783,VALID,8,VALID,1.46211,
2011-10-01, 01:56:04,VALID,916.908,VALID,0,VALID,96.0932,VALID,0,VALID,19.8588,VALID,19,VALID,1.33945,
2011-10-01, 01:57:04,VALID,916.92,VALID,0,VALID,96.0398,VALID,0,VALID,19.8798,VALID,13,VALID,0.767969,
2011-10-01, 01:58:04,VALID,916.931,VALID,0,VALID,96.0017,VALID,0,VALID,19.8588,VALID,13,VALID,0.574219,
2011-10-01, 01:59:04,VALID,916.92,VALID,0,VALID,95.9559,VALID,0,VALID,19.8798,VALID,13,VALID,0.351172,
2011-10-01, 02:00:04,VALID,916.928,VALID,0,VALID,95.9331,VALID,0,VALID,19.8798,VALID,13,VALID,0.201953,
2011-10-01, 02:01:04,VALID,916.96,VALID,0,VALID,95.8187,VALID,0,VALID,19.8573,VALID,13,VALID,1.09883,
2011-10-01, 02:02:04,VALID,916.901,VALID,0,VALID,95.7349,VALID,0,VALID,19.8378,VALID,37,VALID,1.22812,
2011-10-01, 02:03:04,VALID,916.917,VALID,0,VALID,95.7577,VALID,0,VALID,19.8378,VALID,42,VALID,1.18594,
2011-10-01, 02:04:04,VALID,916.884,VALID,0,VALID,95.7577,VALID,0,VALID,19.8768,VALID,45,VALID,0.534766,
2011-10-01, 02:05:04,VALID,916.873,VALID,0,VALID,95.6815,VALID,0,VALID,19.8573,VALID,360,VALID,1.72734,
2011-10-01, 02:06:04,VALID,916.893,VALID,0,VALID,95.5595,VALID,0.107441,VALID,19.8783,VALID,359,VALID,0.879297,
2011-10-01, 02:07:04,VALID,916.884,VALID,0,VALID,95.468,VALID,0,VALID,19.8588,VALID,359,VALID,0.601172,
2011-10-01, 02:08:04,VALID,916.872,VALID,0,VALID,95.4071,VALID,0,VALID,19.8573,VALID,359,VALID,0.335547,
2011-10-01, 02:09:04,VALID,916.912,VALID,0,VALID,95.3689,VALID,0.107441,VALID,19.8573,VALID,359,VALID,0.355469,
2011-10-01, 02:10:04,VALID,916.938,VALID,0,VALID,95.3232,VALID,0,VALID,19.8768,VALID,359,VALID,0.190625,
2011-10-01, 02:11:04,VALID,916.881,VALID,0,VALID,95.3842,VALID,0,VALID,19.9368,VALID,359,VALID,0,
2011-10-01, 02:12:04,VALID,916.912,VALID,0,VALID,95.3537,VALID,0.107441,VALID,19.9158,VALID,359,VALID,0.0472656,
2011-10-01, 02:13:04,VALID,916.922,VALID,0,VALID,95.2851,VALID,0,VALID,19.9353,VALID,359,VALID,0.515234,
2011-10-01, 02:14:04,VALID,916.88,VALID,0,VALID,95.2012,VALID,0,VALID,19.9758,VALID,359,VALID,0.474609,
2011-10-01, 02:15:04,VALID,916.892,VALID,0,VALID,95.1326,VALID,0,VALID,19.9548,VALID,359,VALID,0.711328,
2011-10-01, 02:16:04,VALID,916.836,VALID,0,VALID,95.1021,VALID,0,VALID,19.9743,VALID,359,VALID,0,
2011-10-01, 02:17:04,VALID,916.855,VALID,0,VALID,95.125,VALID,0,VALID,19.9938,VALID,359,VALID,0.611328,
2011-10-01, 02:18:04,VALID,916.883,VALID,0,VALID,95.0716,VALID,0.107441,VALID,19.9938,VALID,359,VALID,0.63125,
2011-10-01, 02:19:04,VALID,916.876,VALID,0,VALID,95.0869,VALID,0.107441,VALID,19.9743,VALID,359,VALID,0.284375,
2011-10-01, 02:20:04,VALID,916.866,VALID,0,VALID,95.0335,VALID,0,VALID,19.9938,VALID,359,VALID,0.551172,
2011-10-01, 02:21:04,VALID,916.855,VALID,0,VALID,94.9725,VALID,0,VALID,19.9353,VALID,359,VALID,1.41562,
2011-10-01, 02:22:04,VALID,916.848,VALID,0,VALID,95.1936,VALID,0.107441,VALID,19.9353,VALID,359,VALID,0.900391,
2011-10-01, 02:23:04,VALID,916.847,VALID,0,VALID,95.3689,VALID,0,VALID,19.9548,VALID,48,VALID,1.69805,
2011-10-01, 02:24:04,VALID,916.877,VALID,0,VALID,95.3384,VALID,0,VALID,19.9158,VALID,30,VALID,1.14883,
2011-10-01, 02:25:04,VALID,916.849,VALID,0,VALID,95.3689,VALID,0.107441,VALID,19.8768,VALID,30,VALID,0.767187,
2011-10-01, 02:26:04,VALID,916.865,VALID,0,VALID,95.4071,VALID,0,VALID,19.8573,VALID,30,VALID,0.879687,
2011-10-01, 02:27:04,VALID,916.894,VALID,0,VALID,95.468,VALID,0.107441,VALID,19.8573,VALID,30,VALID,0.953125,
2011-10-01, 02:28:04,VALID,916.894,VALID,0,VALID,95.4604,VALID,0,VALID,19.8393,VALID,30,VALID,0.834766,
2011-10-01, 02:29:04,VALID,916.874,VALID,0,VALID,95.5519,VALID,0.107441,VALID,19.8378,VALID,30,VALID,0.636328,
2011-10-01, 02:30:04,VALID,916.856,VALID,0,VALID,95.5671,VALID,0,VALID,19.7988,VALID,30,VALID,1.01797,
2011-10-01, 02:31:04,VALID,916.855,VALID,0,VALID,95.6205,VALID,0,VALID,19.7598,VALID,30,VALID,0.5125,
2011-10-01, 02:32:04,VALID,916.85,VALID,0,VALID,95.6967,VALID,0,VALID,19.8003,VALID,30,VALID,0.386328,
2011-10-01, 02:33:04,VALID,916.806,VALID,0,VALID,95.834,VALID,0,VALID,19.7988,VALID,30,VALID,0.4375,
2011-10-01, 02:34:04,VALID,916.766,VALID,0,VALID,95.8187,VALID,0,VALID,19.7988,VALID,30,VALID,0.809375,
2011-10-01, 02:35:04,VALID,916.771,VALID,0,VALID,95.8568,VALID,0,VALID,19.7598,VALID,30,VALID,0.772266,
2011-10-01, 02:36:04,VALID,916.754,VALID,0,VALID,95.8873,VALID,0,VALID,19.7988,VALID,30,VALID,0.755859,
2011-10-01, 02:37:04,VALID,916.788,VALID,0,VALID,95.834,VALID,0,VALID,19.7598,VALID,30,VALID,0.710547,
2011-10-01, 02:38:04,VALID,916.788,VALID,0,VALID,95.8568,VALID,0.107441,VALID,19.7403,VALID,30,VALID,0.823047,
2011-10-01, 02:39:04,VALID,916.792,VALID,0,VALID,95.8492,VALID,0,VALID,19.7403,VALID,30,VALID,1.29219,
2011-10-01, 02:40:04,VALID,916.792,VALID,0,VALID,95.9254,VALID,0,VALID,19.7403,VALID,29,VALID,1.04375,
2011-10-01, 02:41:04,VALID,916.834,VALID,0,VALID,95.8797,VALID,0,VALID,19.7208,VALID,30,VALID,1.30742,
2011-10-01, 02:42:04,VALID,916.785,VALID,0,VALID,95.9102,VALID,0,VALID,19.7208,VALID,30,VALID,1.71055,
2011-10-01, 02:43:04,VALID,916.786,VALID,0,VALID,95.8797,VALID,0,VALID,19.7013,VALID,18,VALID,1.43828,
2011-10-01, 02:44:04,VALID,916.811,VALID,0,VALID,95.9407,VALID,0,VALID,19.7013,VALID,25,VALID,0.95,
2011-10-01, 02:45:04,VALID,916.839,VALID,0,VALID,95.895,VALID,0,VALID,19.7028,VALID,25,VALID,0.644922,
2011-10-01, 02:46:04,VALID,916.823,VALID,0,VALID,96.0017,VALID,0,VALID,19.7013,VALID,25,VALID,0.959766,
2011-10-01, 02:47:04,VALID,916.887,VALID,0,VALID,95.9788,VALID,0,VALID,19.7418,VALID,25,VALID,0.803125,
2011-10-01, 02:48:04,VALID,916.892,VALID,0,VALID,95.9254,VALID,0,VALID,19.7223,VALID,25,VALID,0.776953,
2011-10-01, 02:49:04,VALID,916.919,VALID,0,VALID,96.0169,VALID,0,VALID,19.7418,VALID,25,VALID,0.471875,
2011-10-01, 02:50:04,VALID,916.927,VALID,0,VALID,95.9864,VALID,0,VALID,19.7208,VALID,25,VALID,0.69375,
2011-10-01, 02:51:04,VALID,916.939,VALID,0,VALID,96.0855,VALID,0,VALID,19.7193,VALID,50,VALID,1.31094,
2011-10-01, 02:52:04,VALID,916.936,VALID,0,VALID,96.0474,VALID,0.107441,VALID,19.7613,VALID,11,VALID,0.529688,
2011-10-01, 02:53:04,VALID,916.916,VALID,0,VALID,96.1236,VALID,0,VALID,19.8003,VALID,11,VALID,0.684375,
2011-10-01, 02:54:04,VALID,916.913,VALID,0,VALID,95.9407,VALID,0,VALID,19.7613,VALID,11,VALID,0.616797,
2011-10-01, 02:55:04,VALID,916.96,VALID,0,VALID,96.0398,VALID,0,VALID,19.7613,VALID,11,VALID,0.290234,
2011-10-01, 02:56:04,VALID,916.939,VALID,0,VALID,95.9483,VALID,0,VALID,19.7403,VALID,11,VALID,0.785937,
2011-10-01, 02:57:04,VALID,916.948,VALID,0,VALID,95.9712,VALID,0,VALID,19.7613,VALID,11,VALID,0.701953,
2011-10-01, 02:58:04,VALID,917.003,VALID,0,VALID,95.9864,VALID,0,VALID,19.7613,VALID,38,VALID,1.36758,
2011-10-01, 02:59:04,VALID,917,VALID,0,VALID,95.9712,VALID,0,VALID,19.7613,VALID,37,VALID,0.528906,
2011-10-01, 03:00:04,VALID,916.992,VALID,0,VALID,95.895,VALID,0,VALID,19.7613,VALID,37,VALID,0.323438,
2011-10-01, 03:01:04,VALID,916.982,VALID,0,VALID,95.9102,VALID,0,VALID,19.7418,VALID,37,VALID,0.614844,
2011-10-01, 03:02:04,VALID,917.021,VALID,0,VALID,95.7958,VALID,0,VALID,19.7028,VALID,10,VALID,1.13164,
2011-10-01, 03:03:04,VALID,917.012,VALID,0,VALID,95.7654,VALID,0,VALID,19.7028,VALID,10,VALID,0.773047,
2011-10-01, 03:04:04,VALID,917.018,VALID,0,VALID,95.7577,VALID,0,VALID,19.7028,VALID,10,VALID,1.17695,
2011-10-01, 03:05:04,VALID,917.003,VALID,0,VALID,95.7882,VALID,0,VALID,19.7028,VALID,11,VALID,1.57578,
2011-10-01, 03:06:04,VALID,916.989,VALID,0,VALID,95.8035,VALID,0,VALID,19.6623,VALID,11,VALID,1.68164,
2011-10-01, 03:07:04,VALID,916.982,VALID,0,VALID,95.7349,VALID,0,VALID,19.6833,VALID,16,VALID,1.81289,
2011-10-01, 03:08:04,VALID,916.932,VALID,0,VALID,95.7272,VALID,0,VALID,19.6638,VALID,18,VALID,2.36367,
2011-10-01, 03:09:04,VALID,916.956,VALID,0,VALID,95.7501,VALID,0,VALID,19.6623,VALID,17,VALID,2.02891,
2011-10-01, 03:10:04,VALID,916.902,VALID,0,VALID,95.7425,VALID,0,VALID,19.6818,VALID,24,VALID,2.50859,
2011-10-01, 03:11:04,VALID,916.924,VALID,0,VALID,95.6815,VALID,0,VALID,19.6833,VALID,21,VALID,2.17148,
2011-10-01, 03:12:04,VALID,916.916,VALID,0,VALID,95.529,VALID,0,VALID,19.6833,VALID,27,VALID,0.994141,
2011-10-01, 03:13:04,VALID,916.938,VALID,0,VALID,95.2241,VALID,0,VALID,19.7223,VALID,27,VALID,1.21055,
2011-10-01, 03:14:04,VALID,916.924,VALID,0,VALID,95.0488,VALID,0,VALID,19.8003,VALID,27,VALID,0.513281,
2011-10-01, 03:15:04,VALID,916.952,VALID,0,VALID,94.6218,VALID,0,VALID,19.8198,VALID,68,VALID,1.57187,
2011-10-01, 03:16:04,VALID,916.977,VALID,0,VALID,94.3931,VALID,0,VALID,19.8783,VALID,230,VALID,1.03555,
2011-10-01, 03:17:04,VALID,916.962,VALID,0,VALID,94.355,VALID,0,VALID,19.8978,VALID,247,VALID,1.11172,
2011-10-01, 03:18:04,VALID,916.994,VALID,0,VALID,94.4922,VALID,0,VALID,19.9173,VALID,247,VALID,0.734375,
2011-10-01, 03:19:04,VALID,916.986,VALID,0,VALID,94.7362,VALID,0,VALID,19.9173,VALID,247,VALID,0.302344,
2011-10-01, 03:20:04,VALID,916.954,VALID,0,VALID,94.9268,VALID,0,VALID,19.8978,VALID,247,VALID,0.0386719,
2011-10-01, 03:21:04,VALID,916.96,VALID,0,VALID,95.0488,VALID,0,VALID,19.8978,VALID,247,VALID,0.128906,
2011-10-01, 03:22:04,VALID,916.977,VALID,0,VALID,95.0259,VALID,0,VALID,19.8783,VALID,247,VALID,0.155078,
2011-10-01, 03:23:04,VALID,917.009,VALID,0,VALID,95.125,VALID,0,VALID,19.8783,VALID,247,VALID,0.421875,
2011-10-01, 03:24:04,VALID,917.02,VALID,0,VALID,95.1631,VALID,0,VALID,19.8783,VALID,247,VALID,0.324609,
2011-10-01, 03:25:04,VALID,917.01,VALID,0,VALID,95.2012,VALID,0,VALID,19.8183,VALID,247,VALID,0.446875,
2011-10-01, 03:26:04,VALID,917.018,VALID,0,VALID,95.3613,VALID,0,VALID,19.8378,VALID,247,VALID,0.424609,
2011-10-01, 03:27:04,VALID,917.041,VALID,0,VALID,95.4528,VALID,0,VALID,19.8183,VALID,247,VALID,0.20625,
2011-10-01, 03:28:04,VALID,917.059,VALID,0,VALID,95.5443,VALID,0,VALID,19.8393,VALID,247,VALID,0.152344,
2011-10-01, 03:29:04,VALID,917.08,VALID,0,VALID,95.6205,VALID,0,VALID,19.8183,VALID,247,VALID,0.725781,
2011-10-01, 03:30:04,VALID,917.107,VALID,0,VALID,95.6205,VALID,0,VALID,19.7988,VALID,247,VALID,0.508594,
2011-10-01, 03:31:04,VALID,917.131,VALID,0,VALID,95.7044,VALID,0,VALID,19.7793,VALID,247,VALID,0.250391,
2011-10-01, 03:32:04,VALID,917.138,VALID,0,VALID,95.8797,VALID,0,VALID,19.8393,VALID,247,VALID,0.558984,
2011-10-01, 03:33:04,VALID,917.109,VALID,0,VALID,95.9483,VALID,0,VALID,19.8588,VALID,247,VALID,0.391016,
2011-10-01, 03:34:04,VALID,917.088,VALID,0,VALID,95.9941,VALID,0,VALID,19.8393,VALID,49,VALID,1.27539,
2011-10-01, 03:35:04,VALID,917.061,VALID,0,VALID,96.0855,VALID,0,VALID,19.8393,VALID,47,VALID,1.05234,
2011-10-01, 03:36:04,VALID,917.046,VALID,0,VALID,96.1541,VALID,0,VALID,19.8378,VALID,46,VALID,0.808203,
2011-10-01, 03:37:04,VALID,917.057,VALID,0,VALID,96.1999,VALID,0,VALID,19.8588,VALID,46,VALID,0.423438,
2011-10-01, 03:38:04,VALID,917.063,VALID,0,VALID,96.1846,VALID,0,VALID,19.8393,VALID,46,VALID,0,
2011-10-01, 03:39:04,VALID,917.088,VALID,0,VALID,96.2304,VALID,0,VALID,19.8393,VALID,46,VALID,0,
2011-10-01, 03:40:04,VALID,917.082,VALID,0,VALID,96.2533,VALID,0,VALID,19.8588,VALID,46,VALID,0,
2011-10-01, 03:41:04,VALID,917.085,VALID,0,VALID,96.2914,VALID,0,VALID,19.8588,VALID,46,VALID,0,
2011-10-01, 03:42:04,VALID,917.09,VALID,0,VALID,96.2304,VALID,0,VALID,19.8183,VALID,46,VALID,0.198437,
2011-10-01, 03:43:04,VALID,917.102,VALID,0,VALID,96.2761,VALID,0,VALID,19.7988,VALID,46,VALID,0.0121094,
2011-10-01, 03:44:04,VALID,917.082,VALID,0,VALID,96.2533,VALID,0,VALID,19.7988,VALID,46,VALID,0.348828,
2011-10-01, 03:45:04,VALID,917.061,VALID,0,VALID,96.1389,VALID,0,VALID,19.7793,VALID,45,VALID,0.826563,
2011-10-01, 03:46:04,VALID,917.104,VALID,0,VALID,96.0779,VALID,0,VALID,19.7403,VALID,45,VALID,0.535937,